This is the latest recevied weather packets stored in our database for station/object AJ7DN. If no packets are shown the sender has not sent any weather packets the latest 10 day(s).
| Time | Temp. | Humidity | Pressure | Rain* | Wind** | Luminosity | Snow |
|---|---|---|---|---|---|---|---|
| 1777907346 | 13.33° C | 86% | 1017.8 hPa | 0 mm | - | 41 W/m² | - |
| 1777907042 | 12.78° C | 86% | 1017.9 hPa | 0 mm | - | 46 W/m² | - |
| 1777906740 | 12.78° C | 87% | 1017.7 hPa | 0 mm | - | 49 W/m² | - |
| 1777906436 | 12.78° C | 87% | 1017.8 hPa | 0 mm | - | 51 W/m² | - |
| 1777906133 | 12.78° C | 88% | 1017.8 hPa | 0 mm | - | 42 W/m² | - |
| 1777905830 | 12.78° C | 88% | 1017.6 hPa | 0 mm | - | 43 W/m² | - |
| 1777905527 | 12.78° C | 88% | 1017.6 hPa | 0 mm | - | 39 W/m² | - |
| 1777905223 | 12.78° C | 89% | 1017.5 hPa | 0 mm | - | 34 W/m² | - |
| 1777904921 | 12.78° C | 88% | 1017.3 hPa | 0 mm | - | 28 W/m² | - |
| 1777904618 | 12.22° C | 89% | 1017.5 hPa | 0 mm | - | 28 W/m² | - |
| 1777904315 | 12.22° C | 89% | 1017.4 hPa | 0 mm | - | 29 W/m² | - |
| 1777904013 | 12.22° C | 89% | 1017.2 hPa | 0 mm | - | 29 W/m² | - |
| 1777903709 | 12.22° C | 90% | 1017.1 hPa | 0 mm | - | 30 W/m² | - |
| 1777903405 | 12.22° C | 90% | 1017.1 hPa | 0 mm | - | 27 W/m² | - |
| 1777903102 | 12.22° C | 90% | 1017 hPa | 0 mm | - | 23 W/m² | - |
| 1777902798 | 11.67° C | 90% | 1016.9 hPa | 0 mm | - | 21 W/m² | - |
| 1777902496 | 11.67° C | 91% | 1016.7 hPa | 0 mm | - | 21 W/m² | - |
| 1777902192 | 11.67° C | 91% | 1016.8 hPa | 0 mm | - | 19 W/m² | - |
| 1777901890 | 11.67° C | 91% | 1016.8 hPa | 0 mm | - | 15 W/m² | - |
| 1777901588 | 11.67° C | 91% | 1016.9 hPa | 0 mm | - | 10 W/m² | - |
| 1777901285 | 11.67° C | 91% | 1016.7 hPa | 0 mm | - | 11 W/m² | - |
| 1777900982 | 11.67° C | 91% | 1016.6 hPa | 0 mm | - | 7 W/m² | - |
| 1777900680 | 11.67° C | 91% | 1016.4 hPa | 0 mm | - | 4 W/m² | - |
| 1777900376 | 11.67° C | 91% | 1016.4 hPa | 0 mm | - | 3 W/m² | - |
| 1777900074 | 11.67° C | 91% | 1016.2 hPa | 0 mm | - | 2 W/m² | - |
* Rain latest hour (hover to see other rain measurements)
** Current wind speed in m/s (hover to see current wind gust speed)